Погода в Абтенау

Австрия     47°33′50″N   13°20′42″E
темп.,
°C
ветер,
м/с
пор.,
м/с
влажн.,
%
обл.,
%
осадки,
мм/ч
давл.,
гПа
погр.,
м
17 апреля, сб
сб1723:00−9зюз119739 0.0 102710
02:00−11юз119958 0.0 102816
05:00−11юз1110065 0.0 102722
08:00−5ююз119146 0.0 1024144
11:00+2с1170100 0.0 1020969
14:00+2с2271100 0.1 10181010
17:00+2с2276100 0.1 1017758
20:00−2с2396100 0.1 101968
18 апреля, вс
вс1823:00−2ссз1298100 0.1 1020109
02:00−2ссз1199100 0.2 102066
05:00−3сз1199100 0.1 101963
08:00−1ссз1292100 0.3 1019299
11:00+1с2281100 0.4 1018773
14:00+2с228097 0.8 1017903
17:00+1с3388100 0.3 1018689
20:00−2ссз2398100 0.4 1020154
19 апреля, пн
пн1923:00−3сз1299100 0.1 1022105
02:00−3сз1199100 0.3 102135
05:00−3ссз1199100 0.3 102050
08:00−1сз119299 0.8 1020333
11:00+2ссз2280100 0.2 1018842
14:00+3с3378100 0.6 1017931
17:00+3ссз3381100 0.4 1016885
20:000ссз2299100 0.7 101873
20 апреля, вт
вт2023:00−2зсз1299100 0.3 1018101
02:00−2з1199100 0.4 101839
05:00−2зюз1298100 0.3 101766
08:000зюз1196100 1.4 1016257
11:00+2ссз1198100 1.4 1016211
14:00+2с229692 2.0 1016347
17:00+4с228220 0.3 1014764
20:00−1ссз119819 0.4 101810
21 апреля, ср
ср2123:00−4юз119826 0.0 102113
02:00−5ююз119839 0.0 102121
05:00−6ююз219854 0.0 102222
08:00−1ююз12905 0.0 1020118
11:00+7сз01719 0.1 1017884
14:00+8с21716 1.3 10151056
17:00+7с227526 0.9 1015876
20:00+2сз119375 1.8 101812